This demonstration page uses our WeatherBlox Daily Observations layout. Learn more.

41.55636, -103.73856

Hourly Observations for April 3, 2019

Temp ( °F °C ) Dew Point ( °F °C ) Humidity (%) Winds ( mph kmh ) Pressure ( in mb ) Visibility ( mi km ) Precip ( " mm )
12:58 am 00:58 Mostly Cloudy 45 7 30 -1.2 56 56 SSE 5 7 29.99 1016 10 16.0934 0 0
1:58 am 01:58 Cloudy 43 6.3 31 -0.6 62 62 SSE 12 19 29.99 1016 10 16.0934 0 0
2:58 am 02:58 Cloudy with Light Rain 40 4.3 35 1.7 83 83 SE 7 11 30.02 1017 10 16.0934 0 0
3:58 am 03:58 Mostly Cloudy with Light Rain 39 3.7 36 2.3 91 91 SE 6 9 30.01 1016 6 9.65604 0.02 0.508
4:58 am 04:58 Mostly Cloudy 38 3.4 36 2 91 91 ESE 10 17 29.98 1015 10 16.0934 0.01 0.254
5:58 am 05:58 Mostly Clear 36 2.3 35 1.4 94 94 ESE 9 15 29.96 1014 8 12.87472 0 0
6:58 am 06:58 Mostly Cloudy with Mist and Fog 35 1.8 34 1 95 95 ESE 9 15 29.95 1014 2 3.21868 0 0
7:58 am 07:58 Mostly Cloudy with Light Drizzle 36 2 34 1.3 95 95 SSE 8 13 29.93 1014 2 3.21868 0 0
8:58 am 08:58 Mostly Cloudy 37 2.7 34 0.9 88 88 S 15 24 29.9 1013 10 16.0934 0 0
9:58 am 09:58 Mostly Cloudy 37 2.5 33 0.8 89 89 S 14 22 29.89 1012 10 16.0934 0 0
10:58 am 10:58 Mostly Cloudy 36 2.1 33 0.5 89 89 S 12 19 29.88 1012 10 16.0934 0 0
11:58 am 11:58 Cloudy 36 2.2 33 0.6 89 89 S 14 22 29.88 1012 10 16.0934 0 0
12:58 pm 12:58 Mostly Cloudy 35 1.6 33 0.4 92 92 S 8 13 29.89 1012 9 14.48406 0 0
1:58 pm 13:58 Partly Cloudy 36 2.4 34 1.2 92 92 S 14 22 29.91 1013 8 12.87472 0 0
2:58 pm 14:58 Mostly Cloudy 39 4.1 36 2.3 88 88 S 14 22 29.91 1013 10 16.0934 0 0
3:58 pm 15:58 Mostly Cloudy 41 4.8 37 2.7 86 86 S 15 24 29.92 1013 10 16.0934 0 0
4:58 pm 16:58 Mostly Cloudy 43 6.2 37 3 80 80 S 14 22 29.91 1013 10 16.0934 0 0
5:58 pm 17:58 Mostly Cloudy 47 8.1 38 3.4 73 73 S 10 17 29.9 1013 10 16.0934 0 0
6:58 pm 18:58 Mostly Cloudy 51 10.3 38 3.6 63 63 S 10 17 29.89 1012 10 16.0934 0 0
7:58 pm 19:58 Mostly Cloudy 52 11.1 37 2.9 57 57 SE 6 9 29.85 1011 10 16.0934 0 0
8:58 pm 20:58 Mostly Cloudy with Light Showers 47 8.6 39 3.9 73 73 WSW 9 15 29.88 1012 10 16.0934 0.01 0.254
9:58 pm 21:58 Cloudy with Showers 44 6.6 41 4.8 88 88 Calm 29.91 1013 5 8.0467 0.09 2.286
10:58 pm 22:58 Mostly Cloudy with Light Showers 47 8.4 41 5.2 80 80 ESE 5 7 29.91 1013 10 16.0934 0 0
11:58 pm 23:58 Mostly Sunny 46 7.5 41 5.1 85 85 SE 8 13 29.91 1013 10 16.0934 0 0

Powered by AerisWeather